Time,TemperatureF,DewpointF,PressureIn,WindDirection,WindDirectionDegrees,WindSpeedMPH,WindSpeedGustMPH,Humidity,HourlyPrecipIn,Conditions,Clouds,dailyrainin,SoftwareType,DateUTC
2013-01-31 07:02:00,-15.0,-21.0,30.57,WSW,244,5.0,-999.0,72,-99.99,,,-99.99,,2013-01-31 14:02:00,
2013-01-31 07:11:00,-15.0,-21.0,30.57,WSW,244,5.0,-999.0,72,-99.99,,,-99.99,,2013-01-31 14:11:00,
2013-01-31 07:22:00,-16.0,-23.0,30.58,WSW,247,2.0,-999.0,71,-99.99,,,-99.99,,2013-01-31 14:22:00,
2013-01-31 07:32:00,-16.0,-22.0,30.58,WSW,237,4.0,-999.0,72,-99.99,,,-99.99,,2013-01-31 14:32:00,
2013-01-31 07:42:00,-16.0,-22.0,30.58,WSW,237,4.0,-999.0,72,-99.99,,,-99.99,,2013-01-31 14:42:00,
2013-01-31 07:52:00,-16.0,-22.0,30.59,WSW,237,4.0,-999.0,72,-99.99,,,-99.99,,2013-01-31 14:52:00,
2013-01-31 08:03:00,-15.0,-21.0,30.59,WSW,254,7.0,-999.0,72,-99.99,,,-99.99,,2013-01-31 15:03:00,
2013-01-31 08:12:00,-15.0,-21.0,30.59,WSW,254,7.0,-999.0,72,-99.99,,,-99.99,,2013-01-31 15:12:00,
2013-01-31 08:22:00,-15.0,-22.0,30.60,SW,234,7.0,-999.0,71,-99.99,,,-99.99,,2013-01-31 15:22:00,
2013-01-31 08:32:00,-14.0,-21.0,30.60,SW,231,3.0,-999.0,70,-99.99,,,-99.99,,2013-01-31 15:32:00,
2013-01-31 08:42:00,-14.0,-21.0,30.60,SW,231,3.0,-999.0,70,-99.99,,,-99.99,,2013-01-31 15:42:00,
2013-01-31 08:52:00,-13.0,-20.0,30.61,SW,232,6.0,-999.0,70,-99.99,,,-99.99,,2013-01-31 15:52:00,
2013-01-31 09:03:00,-13.0,-20.0,30.60,SW,232,8.0,-999.0,69,-99.99,,,-99.99,,2013-01-31 16:03:00,
2013-01-31 09:12:00,-13.0,-20.0,30.60,SW,232,8.0,-999.0,69,-99.99,,,-99.99,,2013-01-31 16:12:00,
2013-01-31 09:22:00,-13.0,-20.0,30.60,SW,236,8.0,-999.0,69,-99.99,,,-99.99,,2013-01-31 16:22:00,
2013-01-31 09:33:00,-12.0,-19.0,30.61,WSW,238,9.0,-999.0,69,-99.99,,,-99.99,,2013-01-31 16:33:00,
2013-01-31 09:42:00,-12.0,-19.0,30.61,WSW,238,9.0,-999.0,69,-99.99,,,-99.99,,2013-01-31 16:42:00,
2013-01-31 09:52:00,-12.0,-20.0,30.61,WSW,246,10.0,-999.0,68,-99.99,,,-99.99,,2013-01-31 16:52:00,
2013-01-31 10:02:00,-11.0,-19.0,30.61,SW,227,7.0,-999.0,68,-99.99,,,-99.99,,2013-01-31 17:02:00,
2013-01-31 10:12:00,-11.0,-19.0,30.61,SW,227,7.0,-999.0,68,-99.99,,,-99.99,,2013-01-31 17:12:00,
2013-01-31 10:23:00,-10.0,-18.0,30.61,SW,232,8.0,-999.0,67,-99.99,,,-99.99,,2013-01-31 17:23:00,
2013-01-31 10:32:00,-10.0,-18.0,30.61,SW,231,8.0,-999.0,67,-99.99,,,-99.99,,2013-01-31 17:32:00,
2013-01-31 10:43:00,-10.0,-18.0,30.61,SW,231,8.0,-999.0,67,-99.99,,,-99.99,,2013-01-31 17:43:00,
2013-01-31 10:53:00,-9.0,-17.0,30.61,SW,228,8.0,-999.0,66,-99.99,,,-99.99,,2013-01-31 17:53:00,
2013-01-31 11:02:00,-8.0,-17.0,30.61,SW,220,7.0,-999.0,65,-99.99,,,-99.99,,2013-01-31 18:02:00,
2013-01-31 11:12:00,-7.0,-16.0,30.61,SW,229,9.0,-999.0,65,-99.99,,,-99.99,,2013-01-31 18:12:00,
2013-01-31 11:22:00,-7.0,-16.0,30.61,SW,229,9.0,-999.0,65,-99.99,,,-99.99,,2013-01-31 18:22:00,
2013-01-31 11:32:00,-7.0,-16.0,30.61,SW,229,9.0,-999.0,65,-99.99,,,-99.99,,2013-01-31 18:32:00,
2013-01-31 11:43:00,-7.0,-16.0,30.61,SW,229,9.0,-999.0,65,-99.99,,,-99.99,,2013-01-31 18:43:00,
2013-01-31 11:52:00,-7.0,-16.0,30.61,WSW,237,9.0,-999.0,65,-99.99,,,-99.99,,2013-01-31 18:52:00,
2013-01-31 12:02:00,-7.0,-16.0,30.60,SW,215,9.0,-999.0,65,-99.99,,,-99.99,,2013-01-31 19:02:00,
2013-01-31 12:12:00,-7.0,-16.0,30.60,SW,215,9.0,-999.0,65,-99.99,,,-99.99,,2013-01-31 19:12:00,
2013-01-31 12:22:00,-6.0,-15.0,30.60,SW,232,8.0,-999.0,65,-99.99,,,-99.99,,2013-01-31 19:22:00,
2013-01-31 12:32:00,-5.0,-14.0,30.58,WSW,243,8.0,-999.0,64,-99.99,,,-99.99,,2013-01-31 19:32:00,
2013-01-31 12:42:00,-5.0,-14.0,30.58,WSW,243,8.0,-999.0,64,-99.99,,,-99.99,,2013-01-31 19:42:00,
2013-01-31 12:52:00,-5.0,-14.0,30.58,WSW,237,9.0,-999.0,64,-99.99,,,-99.99,,2013-01-31 19:52:00,
2013-01-31 13:02:00,-4.0,-13.0,30.57,SW,217,7.0,-999.0,64,-99.99,,,-99.99,,2013-01-31 20:02:00,
2013-01-31 13:11:00,-4.0,-13.0,30.57,SW,217,7.0,-999.0,64,-99.99,,,-99.99,,2013-01-31 20:11:00,
2013-01-31 13:22:00,-4.0,-13.0,30.55,WSW,238,6.0,-999.0,64,-99.99,,,-99.99,,2013-01-31 20:22:00,
2013-01-31 13:31:00,-3.0,-12.0,30.54,SW,233,8.0,-999.0,65,-99.99,,,-99.99,,2013-01-31 20:31:00,
2013-01-31 13:42:00,-3.0,-12.0,30.54,SW,233,8.0,-999.0,65,-99.99,,,-99.99,,2013-01-31 20:42:00,
2013-01-31 13:52:00,-2.0,-11.0,30.53,SW,234,6.0,-999.0,65,-99.99,,,-99.99,,2013-01-31 20:52:00,
2013-01-31 14:02:00,-2.0,-11.0,30.52,SW,234,4.0,-999.0,64,-99.99,,,-99.99,,2013-01-31 21:02:00,
2013-01-31 14:12:00,-2.0,-11.0,30.52,SW,234,4.0,-999.0,64,-99.99,,,-99.99,,2013-01-31 21:12:00,
2013-01-31 14:22:00,-2.0,-11.0,30.52,SW,234,4.0,-999.0,64,-99.99,,,-99.99,,2013-01-31 21:22:00,
2013-01-31 14:32:00,-2.0,-11.0,30.52,SW,234,4.0,-999.0,64,-99.99,,,-99.99,,2013-01-31 21:32:00,
2013-01-31 14:42:00,-2.0,-11.0,30.52,SW,234,4.0,-999.0,64,-99.99,,,-99.99,,2013-01-31 21:42:00,